Track ONEWEB-0246 now! 10-day predictions ONEWEB-0246 is classified as:
1 48786U 21045V 22141.58335648 .00034174 00000-0 90417-1 0 9998 2 48786 87.9110 195.1110 0001786 82.9585 326.4501 13.15538923 1303